CZ-6A DEB

Satellite information

Favourite Embed

Satellite Type and Status

DEBRISIN ORBIT

Key statistics

Satellite CZ-6A DEB at a glance.

Uptime

392

Days in orbit

Revolutions

≈ 14.5

Per day

Orbit

LEO

Low Earth Orbit

Inclination

89.0

Latest

Satellite identification and parameters

Extended collection of information and parameters for CZ-6A DEB.

Object identification

Identified? True

Debris? True

Object name: CZ-6A DEB

International designator: 2024-140PX

Object number (NORAD): 61129

Object ID (CCSDS): 61129

Country: PEOPLES REPUBLIC OF CHINA (PRC)

Current information (Y/N): Y

RCS size: SMALL

Orbital parameters

Period: 99.577 minutes

Inclination: 89.0129 deg

SMA: 7116.493 km

Apoapsis: 789.937 km

Periapsis: 686.778 km

RAAN: 305.9277 deg

Eccentricy: 0.00724793

Argument of periapsis: 202.643 deg

Mean anomaly: 157.1573 deg

Mean motion: 14.46118111 rev/day

Mean motion (dot): 0.00005408 rev/day2

B* drag term: 0.0014621234 1/REarth

Two-line elements (TLE)

Creation date: Sept. 2, 2025, 3:25 a.m.

Reference frame: TEME

Reference center: EARTH

Epoch: Sept. 1, 2025, 9:11 p.m. UTC

TLE line 0: 0 CZ-6A DEB

TLE line 1: 1 61129U 24140PX 25244.88328998 .00005408 00000-0 14621-2 0 9995

TLE line 2: 2 61129 89.0129 305.9277 0072479 202.6430 157.1573 14.46118111 54331

Live tracking on map

Real-time ground track for satellite CZ-6A DEB.

In-orbit conjunctions

A list of the most updated potential collisions computed for object CZ-6A DEB.

Target Orbit TCA Probability of collision Miss distance Type
CZ-6A DEB LEO 2025-03-08 01:04:18 0.0001653619 108.0 (m) DEBRIS
NOAA 16 DEB SSO 2025-02-28 20:17:49 0.0002522224 619.0 (m) DEBRIS
NOAA 16 DEB SSO 2025-02-04 21:09:56 0.0001333468 736.0 (m) DEBRIS
CZ-4B R/B LEO 2025-01-04 02:16:14 0.0007218772 328.0 (m) ROCKET BODY
SL-8 R/B LEO 2024-12-03 15:46:23 0.0001400501 660.0 (m) ROCKET BODY

Associated space launch

18 Low Earth Orbit communication satellites with Ku, Q and V band payloads for the G60 constellation operated by Shanghai Spacecom Satellite Technology (SSST) with funding backed by the Shanghai local government. Initial constellation will consist of 1296 satellites by 2027 with long term plans to expand it to 12000 satellites.

CZ-6A DEB was lifted into orbit during the mission ‘Long March 6A | G60 Polar Group 01’, on board a Long March 6A space rocket.

The launch took place on Aug. 6, 2024, 6:42 a.m. from Launch Complex 9A.

For more information about the launch, click the button.

Launch to space Long March 6A | G60 Polar Group 01
Long March 6A | G60 Polar Group 01

Agency: N/A

Status: Launch Successful

Launch date: Aug. 6, 2024, 6:42 a.m. UTC

Rocket: Long March 6A

Launch pad: Launch Complex 9A

Location: Taiyuan Satellite Launch Center, People's Republic of China

...

Latest news about this satellite

News about space launch
Brightness of first Chinese broadband constellation satellites alarms astronomers

The first satellites of a Chinese broadband constellation are significantly brighter than those of Western systems, posing a new challenge for astronomers.

News about space launch
Chinese rocket stage breaks up into cloud of more than 700 pieces of space debris

HELSINKI — A Chinese Long March 6A rocket’s upper stage has fragmented into a cloud of over 700 pieces of space debris, adding to concerns about long-term orbital safety. China […]

News about space launch
China's Thousand Sails Megaconstellation Kicks Off with Dangerous Debris Field

China's Thousand Sails Megaconstellation Kicks Off with Dangerous Debris Field


Newsletter sign-up

Weekly statistics, charts and insights to help you stay on top of the space industry.